www.pogodaiklimat.ru
Время
(UTC), дата
07 28.05
08 28.05
09 28.05
11 28.05
10 28.05
12 28.05
13 28.05
14 28.05
15 28.05
17 28.05
16 28.05
18 28.05
19 28.05
20 28.05
21 28.05
23 28.05
22 28.05
00 29.05
02 29.05
03 29.05
04 29.05
05 29.05
06 29.05
07 29.05
08 29.05
09 29.05
10 29.05
14 29.05
15 29.05
16 29.05
17 29.05
18 29.05
19 29.05
20 29.05
21 29.05
22 29.05
23 29.05
00 30.05
01 30.05
02 30.05
03 30.05
04 30.05
05 30.05
07 30.05
08 30.05
09 30.05
10 30.05
11 30.05
12 30.05
13 30.05
14 30.05
15 30.05
16 30.05
17 30.05
18 30.05
19 30.05
20 30.05
21 30.05
22 30.05
23 30.05
00 31.05
01 31.05
02 31.05
03 31.05
10 31.05
11 31.05
12 31.05
13 31.05
14 31.05
15 31.05
16 31.05
17 31.05
18 31.05
19 31.05
20 31.05
21 31.05
22 31.05
23 31.05
00 1.06
01 1.06
02 1.06
08 1.06
09 1.06
10 1.06
13 1.06
14 1.06
15 1.06
16 1.06
17 1.06
18 1.06
19 1.06
20 1.06
21 1.06
22 1.06
23 1.06
00 2.06
01 2.06
03 2.06
05 2.06
06 2.06
07 2.06
08 2.06
09 2.06
10 2.06
11 2.06
12 2.06
13 2.06
14 2.06
15 2.06
16 2.06
17 2.06
18 2.06
19 2.06
20 2.06
21 2.06
22 2.06
23 2.06
00 3.06
01 3.06
02 3.06
05 3.06
06 3.06
08 3.06
07 3.06
09 3.06
10 3.06
11 3.06
12 3.06
14 3.06
13 3.06
15 3.06
16 3.06
17 3.06
18 3.06
20 3.06
19 3.06
21 3.06
22 3.06
23 3.06
00 4.06
02 4.06
01 4.06
05 4.06
07 4.06
08 4.06
Ветер
(напр.,м/с)
Видим. Явления Облачность Т
(С)
Тd
(С)
f
(%)
Тe
(С)
Тes
(С)
Комфортность P
(гПа)
Po
(гПа)
Тmin
(С)
Tmax
(С)
R
(мм)
R24
(мм)
S
(см)
н/о н/о +24.2 +15.4 58 1018.9 1010.8
нст 4 н/о н/о +26.4 +15.1 50 +29 +29 жарко 1019.1 1011.1
нст 2 н/о н/о +29.5 +14.8 41 +32 +32 душно 1019.2 1011.3
нст 3 н/о н/о +28.3 +14.5 43 +31 +31 душно 1019.1 1011.1
н/о н/о +28.5 +15.7 46 1019.1 1011.1
нст 3 н/о н/о +29.1 +12.1 35 +30 +30 жарко 1019.2 1011.2
н/о н/о +28.8 +12.2 36 1018.9 1010.9
н/о н/о +28.0 +12.7 39 1018.4 1010.5
нст 4 н/о н/о +28.0 +13.1 40 +30 +30 жарко 1018.1 1010.1
н/о н/о +28.0 +14.2 43 1017.5 1009.7
нст 5 н/о н/о +28.3 +13.0 39 +30 +30 жарко 1017.8 1009.8
нст 5 н/о н/о +26.0 +15.1 51 +29 +29 душно 1017.3 1009.3 +29.9
н/о н/о +23.4 +16.2 64 1017.2 1009.2
н/о н/о +22.5 +15.8 66 1017.2 1009.1
нст 3 н/о н/о +21.9 +14.8 64 +25 +25 комфорт 1017.3 1009.1
штиль 0 н/о н/о +20.9 +14.8 68 +24 +24 комфорт 1017.4 1009.2
н/о н/о +22.3 +15.2 64 1017.4 1009.4
нст 1 12 км 1/0
[Ac trans]
+21.3 +14.9 67 +24 +24 комфорт 1016.9 1008.8
нст 2 н/о н/о +21.3 +16.3 73 +25 +25 комфорт 1016.2 1008.1
нст 1 н/о н/о +20.4 +16.2 77 +24 +24 комфорт 1016.1 1007.9
нст 1 н/о н/о +20.3 +16.7 80 +24 +24 комфорт 1015.9 1007.7
штиль 0 н/о н/о +19.2 +16.0 82 +21 +21 комфорт 1016.0 1007.8
нст 1 н/о н/о +20.2 +16.6 80 +24 +24 комфорт 1015.9 1007.8 +19.2
штиль 0 н/о н/о +24.3 +17.5 66 +28 +28 душно 1015.8 1007.7
н/о н/о +24.0 +17.5 67 1015.8 1007.7
нст 2 н/о н/о +24.3 +17.8 67 +28 +28 душно 1015.6 1007.5
н/о н/о +23.6 +17.6 69 1015.7 1007.6
нст 5 н/о н/о +22.1 +16.6 71 +26 +26 душно 1014.1 1006.1
нст 6 н/о н/о +21.4 +16.4 73 +25 +25 комфорт 1013.8 1005.8
н/о н/о +21.1 +16.3 74 1013.9 1005.8
н/о н/о +20.3 +16.3 78 1013.8 1005.8
нст 4 н/о н/о +19.3 +16.0 81 +21 +21 комфорт 1013.8 1005.6 +26.0
нст 5 н/о н/о +17.8 +15.6 87 +17 +17 тепло 1013.7 1005.5
н/о н/о +16.9 +15.6 92 1013.6 1005.3
нст 3 н/о н/о +16.8 +15.7 93 +17 +17 тепло 1014.3 1005.9
н/о н/о +16.5 +15.5 94 1014.5 1006.2
н/о н/о +16.2 +15.7 97 1014.3 1006.0
СЗ 3 900 м туман ?/? +15.8 +15.6 99 +15 +15 по сезону 1014.3 1006.0
н/о н/о +15.6 +15.4 99 1013.9 1005.7
н/о н/о +15.7 +15.7 100 1013.7 1005.4
нст 1 н/о {туман} н/о +15.7 +15.7 100 +16 +16 тепло 1013.5 1005.2
нст 1 н/о н/о +15.8 +15.8 100 +16 +16 тепло 1012.8 1004.6
нст 1 н/о н/о +15.6 +15.6 100 +16 +16 тепло 1013.1 1004.8
н/о н/о +15.9 +15.9 100 1013.3 1005.0
нст 2 н/о н/о +16.0 +16.0 100 +16 +16 тепло 1013.5 1005.1
нст 2 н/о {туман} н/о +16.1 +16.1 100 +16 +16 по сезону 1013.4 1005.2
н/о н/о +16.9 +16.9 100 1013.3 1005.1
н/о н/о +17.1 +16.8 98 1013.3 1005.1
нст 2 12 км {туман} 10/10 120 м
[St]
+18.5 +17.2 92 +20 +20 по сезону 1013.3 1005.0
нст 3 н/о н/о +18.9 +15.9 83 +20 +20 по сезону 1012.8 1004.7
н/о н/о +18.3 +15.7 85 1012.3 1004.1
нст 4 н/о н/о +17.3 +15.8 91 +17 +17 прохладно 1012.4 1004.2
н/о н/о +16.9 +15.2 90 1012.4 1004.3
н/о н/о +17.1 +15.4 90 1012.7 1004.4
нст 3 н/о н/о +16.6 +15.1 91 +16 +16 прохладно 1012.2 1003.9 +20.0
нст 1 н/о н/о +16.8 +15.3 91 +18 +18 по сезону 1012.9 1004.5
н/о н/о +16.2 +14.9 92 1012.2 1004.2
нст 4 н/о н/о +15.9 +14.9 94 +15 +15 по сезону 1012.5 1004.3
нст 2 н/о н/о +15.8 +14.8 94 +16 +16 по сезону 1012.7 1004.4
нст 3 н/о н/о +15.9 +14.9 94 +15 +15 по сезону 1012.7 1004.4
нст 3 9000 м дымка 10/10 150 м
[St]
+15.7 +14.7 94 +15 +15 по сезону 1012.3 1004.1
н/о н/о +15.6 +14.5 93 1011.8 1003.7
н/о н/о +15.6 +14.5 93 1011.5 1003.2
нст 2 8000 м дымка 10/10 150 м
[St]
+15.7 +14.6 93 +16 +16 тепло 1011.6 1003.2
н/о н/о +17.4 +14.8 85 1012.2 1004.0
нст 4 н/о н/о +17.8 +15.2 85 +18 +18 тепло 1011.8 1003.8
нст 4 8000 м дымка 9/9 210 м
[St Ci sp]
+19.4 +15.7 79 +21 +22 комфорт 1011.3 1003.2
н/о н/о +19.1 +14.6 75 1010.8 1002.7
н/о н/о +19.6 +15.0 75 1010.3 1002.2
нст 6 н/о н/о +19.4 +14.8 75 +21 +21 комфорт 1010.0 1001.9
нст 6 н/о н/о +19.6 +15.0 75 +21 +21 комфорт 1009.7 1001.6
нст 5 н/о н/о +18.5 +14.4 77 +19 +19 по сезону 1009.6 1001.4
нст 5 н/о н/о +17.8 +14.7 82 +17 +17 по сезону 1010.5 1002.2 +20.2
н/о н/о +17.1 +14.7 86 1011.7 1003.5
н/о н/о +17.0 +14.5 85 1011.7 1003.8
нст 5 н/о н/о +16.6 +14.4 87 +16 +16 по сезону 1013.4 1005.1
нст 5 н/о н/о +16.5 +14.5 88 +16 +16 по сезону 1013.0 1004.9
н/о н/о +16.5 +14.3 87 1012.8 1004.7
нст 2 15 км {гроза} 9/5 360 м
[Cb cap Ac cuf Ci ing]
+16.3 +14.3 88 +16 +16 тепло 1012.8 1004.6
нст 4 н/о н/о +16.8 +14.3 85 +16 +16 тепло 1012.4 1004.2
нст 3 н/о н/о +16.1 +14.8 92 +16 +16 тепло 1012.6 1004.2 1
н/о н/о +18.7 +16.3 86 1013.6 1005.3
нст 2 15 км 8/0
[Ac trans Ci sp]
+20.3 +16.3 78 +24 +29 комфорт 1013.8 1005.7
н/о н/о +20.6 +16.4 77 1014.1 1005.9
н/о н/о +21.0 +16.2 74 1014.4 1006.4
н/о н/о +21.5 +15.8 70 1014.2 1006.1
нст 3 н/о н/о +21.1 +15.0 68 +24 +24 комфорт 1014.0 1005.9
нст 3 н/о н/о +21.6 +15.2 67 +25 +25 комфорт 1014.0 1005.9
нст 3 н/о н/о +21.6 +14.7 65 +25 +25 комфорт 1014.1 1005.9
нст 3 15 км 6/0 2000 м
[Ac trans Ci sp]
+20.5 +14.8 70 +24 +25 комфорт 1014.3 1006.1
н/о н/о +20.8 +14.4 67 1014.4 1006.3
н/о н/о +19.6 +14.8 74 1014.8 1006.5
нст 2 н/о н/о +20.3 +15.1 72 +24 +24 комфорт 1015.0 1006.8
нст 1 н/о н/о +19.1 +15.4 79 +22 +22 комфорт 1015.0 1006.9
н/о н/о +19.4 +15.5 78 1014.8 1006.7
С 1 15 км дымка 6/0 2000 м
[Ac trans Ci sp]
+20.1 +15.1 73 +24 +24 комфорт 1014.3 1006.2
н/о н/о +20.2 +15.2 73 1013.9 1005.8
штиль 0 н/о н/о +19.1 +15.4 79 +20 +20 тепло 1013.6 1005.5
н/о н/о +18.3 +15.2 82 1013.3 1005.1
нст 3 н/о н/о +19.0 +14.9 77 +20 +20 тепло 1013.6 1005.3 +18.2
нст 2 н/о н/о +19.9 +15.3 75 +23 +23 комфорт 1014.0 1005.8
нст 2 н/о н/о +21.3 +15.8 71 +25 +25 комфорт 1014.2 1006.1
нст 2 н/о н/о +22.7 +16.2 67 +27 +27 душно 1014.6 1006.4
н/о н/о +23.6 +16.1 63 1014.7 1006.5
н/о н/о +24.2 +15.7 59 1014.5 1006.5
нст 3 15 км 6/0 2000 м
[Ac trans Ci sp]
+23.8 +15.8 61 +27 +39 жарко 1014.6 1006.5
нст 3 н/о н/о +24.2 +15.9 60 +27 +27 жарко 1014.6 1006.6
н/о н/о +23.8 +15.6 60 1014.7 1006.6
нст 3 н/о н/о +22.2 +16.7 71 +27 +27 душно 1014.7 1006.6
н/о н/о +21.4 +16.8 75 1014.6 1006.5
нст 2 н/о н/о +21.6 +16.1 71 +25 +25 комфорт 1014.4 1006.3
нст 2 н/о н/о +20.1 +16.7 81 +24 +24 комфорт 1014.4 1006.2 +24.6
н/о н/о +19.6 +15.7 78 1014.8 1006.6
н/о н/о +19.0 +16.4 85 1015.2 1007.0
нст 1 н/о н/о +18.6 +16.7 89 +21 +21 комфорт 1015.6 1007.4
нст 1 н/о н/о +18.2 +16.7 91 +20 +20 тепло 1015.7 1007.5
нст 1 н/о н/о +17.9 +16.4 91 +19 +19 тепло 1015.2 1007.0
нст 2 10 км 9/3 240 м
[St Ac trans Ci sp]
+17.3 +16.2 93 +18 +18 тепло 1015.0 1006.8
н/о н/о +17.3 +16.2 93 1014.6 1006.4
н/о н/о +17.3 +16.2 93 1014.0 1006.0
нст 1 н/о н/о +16.9 +16.1 95 +18 +18 тепло 1013.1 1004.9
нст 1 н/о н/о +17.3 +16.5 95 +18 +18 тепло 1013.4 1005.2 +16.9
н/о н/о +18.1 +15.5 85 1014.0 1005.8
н/о н/о +17.6 +16.3 92 1013.7 1005.5
нст 2 н/о н/о +18.6 +15.1 80 +20 +20 тепло 1013.8 1005.6
нст 2 н/о н/о +19.8 +15.0 74 +22 +22 комфорт 1013.9 1005.6
н/о н/о +21.1 +15.6 71 1013.6 1005.5
нст 3 н/о н/о +20.7 +15.7 73 +24 +31 комфорт 1013.4 1005.3
нст 3 н/о н/о +19.3 +15.4 78 +21 +21 комфорт 1013.5 1005.3
н/о н/о +20.7 +15.7 73 1013.4 1005.3
нст 3 н/о н/о +19.4 +15.5 78 +21 +21 комфорт 1013.0 1004.8
н/о н/о +18.8 +14.9 78 1012.6 1004.4
н/о н/о +18.6 +15.5 82 1012.4 1004.2
нст 3 н/о н/о +18.3 +15.0 81 +19 +19 по сезону 1012.2 1004.0 +21.7
нст 3 н/о н/о +17.7 +14.8 83 +18 +18 по сезону 1011.7 1003.6
нст 3 н/о н/о +18.0 +15.3 84 +18 +18 по сезону 1012.2 1004.0
нст 3 н/о н/о +17.7 +15.1 85 +18 +18 тепло 1012.2 1003.9
н/о н/о +17.5 +14.8 84 1012.2 1004.1
н/о н/о +17.3 +15.1 87 1011.7 1003.5
СЗ 4 н/о н/о +17.1 +14.7 86 +17 +17 тепло 1011.6 1003.5
н/о н/о +16.6 +15.0 90 1010.3 1002.2
нст 3 н/о н/о +16.9 +14.9 88 +17 +17 тепло 1010.7 1002.6
нст 2 н/о н/о +16.0 +14.5 91 +16 +16 тепло 1010.0 1001.8
н/о н/о +17.3 +15.1 87 1010.7 1002.4
н/о н/о +17.8 +15.2 85 1011.2 1003.0
Местоположение метеостанции Порту (Португалия): широта 41.23 долгота -8.68 высота над уровнем моря 77 м.
В архиве по умолчанию представлена погода в Порту за последнюю неделю. Архивные данные за месяц целиком и за предыдущие месяцы, начиная с января 2011 года, Вы можете получить, выбрав интересующий диапазон дат из раскрывающегося списка и нажав кнопку "Найти!".
*Определитесь, кто Вы:
Внимание! Время в таблицах - всемирное. Для получения местного времени необходимо прибавить поправку, которая равна 0 ч.
Смотрите также архив погоды в соседних городах и на ближайших метеорологических станциях:
Партнеры нашего сайта:      
Пояснения к столбцам:
  • Ветер - указаны скорость ветра в м/с - средняя за 10 мин, порывы в срок и между сроками (в фигурных скобках) и направление, откуда дует ветер: С - северный,
  • СВ - северо-восточный, В - восточный, ЮВ - юго-восточный, Ю - южный, ЮЗ - юго-западный, З - западный, СЗ - северо-западный.
  • Видимость - горизонтальная дальность видимости в метрах или километрах. При видимости от 1 до 10 км при отсутствии осадков обычно наблюдается дымка, при ухудшении видимости до 1 км и менее - туман. В сухую погоду видимость может ухудшаться дымом, пылью или мглою.
  • Явления - указаны атмосферные явления, наблюдавшиеся в срок или в последний час перед сроком; фигурными скобками обозначены явления, наблюдавшиеся между сроками (за 1-3 часа до срока); квадратными скобками обозначены град или гололедные отложения с указанием их диаметра в мм.
  • Облачность - указаны через наклонную черту общая и нижняя облачность в баллах и высота нижней границы облаков в метрах; квадратными скобками обозначены формы облаков: Ci - перистые, Cs - перисто-слоистые, Cc - перисто-кучевые, Ac - высококучевые, As - высокослоистые, Sc - слоисто-кучевые, Ns - слоисто-дождевые, Cu - кучевые, Cb - кучево-дождевые. Подробнее классификацию облаков см. в Атласе облаков (PDF).
  • T - Температура воздуха - температура, измеренная на высоте 2 м над землей.
  • Td - Температура точки росы - температура, при понижении до которой содержащийся в воздухе водяной пар достигнет насыщения.
  • f - Относительная влажность воздуха - влажноcть воздуха, измеренная на высоте 2 м над землей.
  • Te - Эффективная температура - температура, которую ощущает одетый по сезону человек в тени. Характеристика душности погоды. При расчете учитывается влияние влажности воздуха и скорости ветра на теплоощущения человека.
  • Tes - Эффективная температура на солнце - температура, которую ощущает человек, с поправкой на солнечный нагрев. Характеристика знойности погоды. Зависит от высоты солнца над горизонтом, облачности и скорости ветра. Ночью, в пасмурную погоду, а также при ветре 12 м/с и более поправка равна нулю.
  • P - Атмосферное давление - приведенное к уровню моря атмосферное давление.
  • Po - Атмосферное давление - измеренное на уровне метеостанции атмосферное давление.
  • Tmin - Минимальная температура - минимум температуры воздуха на высоте 2 м над землей.
  • Tmax - Максимальная температура - максимум температуры воздуха на высоте 2 м над землей.
  • R - Количество осадков - Количество выпавших осадков за период времени, мм. При наведении курсора мыши на число - период времени, за который выпало указанное количество осадков.
  • R24 - Количество осадков - Количество выпавших осадков за 24 часа, мм.
  • S - Снежный покров - Высота снежного покрова, см. При наведении курсора мыши на число - состояние снежного покрова и степень покрытия местности в баллах.